Terug naar catalogus

HULIANWANG DIGUI-148

ActiefCommunicatieLEO
NORAD 67524·PAYLOAD·🇨🇳 China

Gelanceerd Jan 19, 2026 vanaf Wenchang Space Launch Site

Loading…

Volgende Passages (komende 24 uur)

TLE

VersSource: Space-Track

Epoch: Sep 14, 2026, 01:54 UTC

1 67524U 26013C   26257.07926864 -.00000111  00000-0  28638-4 0  9995
2 67524  50.0102  36.9779 0000821  83.4788 276.6178 13.29330542 31872

Volg HULIANWANG DIGUI-148 in realtime met AllMySat

Download on the App Store